TimeEST,TemperatureF,Dew PointF,Humidity,Sea Level PressureIn,VisibilityMPH,Wind Direction,Wind SpeedMPH,Gust SpeedMPH,PrecipitationIn,Events,Conditions,WindDirDegrees,DateUTC
12:53 AM,33.1,21.9,64,30.15,10.0,SSW,20.7,29.9,N/A,,Clear,200,2013-01-19 05:53:00
1:53 AM,34.0,21.9,61,30.14,10.0,SSW,20.7,-,N/A,,Clear,210,2013-01-19 06:53:00
2:53 AM,35.1,21.0,57,30.16,10.0,SW,15.0,-,N/A,,Clear,220,2013-01-19 07:53:00
3:53 AM,36.0,21.0,55,30.14,10.0,SW,19.6,26.5,N/A,,Clear,220,2013-01-19 08:53:00
4:53 AM,36.0,21.0,55,30.13,10.0,SW,17.3,25.3,N/A,,Clear,220,2013-01-19 09:53:00
5:53 AM,36.0,21.0,55,30.12,10.0,SW,17.3,-,N/A,,Clear,220,2013-01-19 10:53:00
6:53 AM,37.0,21.0,52,30.11,10.0,SW,18.4,24.2,N/A,,Clear,220,2013-01-19 11:53:00
7:53 AM,37.0,21.9,54,30.12,10.0,SW,16.1,25.3,N/A,,Clear,220,2013-01-19 12:53:00
8:53 AM,37.0,21.9,54,30.12,10.0,SSW,13.8,-,N/A,,Clear,200,2013-01-19 13:53:00
9:53 AM,41.0,23.0,49,30.12,10.0,SSW,18.4,28.8,N/A,,Clear,210,2013-01-19 14:53:00
10:53 AM,44.1,24.1,45,30.11,10.0,SSW,18.4,25.3,N/A,,Clear,210,2013-01-19 15:53:00
11:53 AM,46.0,25.0,44,30.06,10.0,SW,18.4,32.2,N/A,,Clear,220,2013-01-19 16:53:00
12:53 PM,48.9,26.1,41,30.01,10.0,SW,19.6,28.8,N/A,,Clear,220,2013-01-19 17:53:00
1:53 PM,50.0,26.1,39,29.97,10.0,SW,20.7,33.4,N/A,,Clear,220,2013-01-19 18:53:00
2:53 PM,50.0,27.0,41,29.93,10.0,SSW,21.9,29.9,N/A,,Clear,210,2013-01-19 19:53:00
3:53 PM,50.0,26.1,39,29.90,10.0,SSW,21.9,31.1,N/A,,Clear,210,2013-01-19 20:53:00
4:53 PM,48.9,25.0,39,29.87,10.0,SSW,24.2,32.2,N/A,,Clear,210,2013-01-19 21:53:00
5:53 PM,46.9,26.1,44,29.87,10.0,SSW,13.8,23.0,N/A,,Clear,210,2013-01-19 22:53:00
6:53 PM,46.0,27.0,47,29.88,10.0,SSW,15.0,-,N/A,,Clear,210,2013-01-19 23:53:00
7:53 PM,44.1,27.0,51,29.86,10.0,SSW,15.0,-,N/A,,Clear,200,2013-01-20 00:53:00
8:53 PM,42.1,27.0,55,29.86,10.0,SSW,12.7,-,N/A,,Clear,200,2013-01-20 01:53:00
9:53 PM,43.0,26.1,51,29.84,10.0,SSW,16.1,23.0,N/A,,Clear,210,2013-01-20 02:53:00
10:53 PM,44.1,27.0,51,29.82,10.0,SW,19.6,33.4,N/A,,Partly Cloudy,220,2013-01-20 03:53:00
11:53 PM,44.1,28.0,53,29.81,10.0,SW,21.9,29.9,N/A,,Partly Cloudy,230,2013-01-20 04:53:00